Sanford, ME

1:12 PM EST on February 24, 2018 (GMT -0500)
Sanford Regional

Weather History for KSFM - March, 2014

Change the Weather History Date:

Sunday, March 16, 2014

  Actual Average Record
Temperature  
Mean Temperature 26 °F -  
Max Temperature 37 °F 37 °F 55 °F (2016)
Min Temperature 15 °F 20 °F 6 °F (2003)
Degree Days  
Heating Degree Days 39    
Moisture  
Dew Point 4 °F    
Average Humidity 41    
Maximum Humidity 80    
Minimum Humidity 28    
Precipitation  
Precipitation 0.00 in - - ()
Sea Level Pressure  
Sea Level Pressure 30.02 in    
Wind  
Wind Speed 14 mph (WNW)    
Max Wind Speed 23 mph    
Max Gust Speed 32 mph    
Visibility 10 miles    
Events      
Averages and records for this station are not official NWS values.
T = Trace of Precipitation, MM = Missing Value Source: NWS Daily Summary

Daily Weather History Graph

Daily Weather History Graph

Search for Another Location

Airport or City:

Trip Planner

Search our weather history database for the weather conditions in past years. The results will help you decide how hot, cold, wet, or windy it might be!

Date:

Astronomy

Mar. 16, 2014 Rise Set
Actual Time 6:53 AM EDT 6:50 PM EDT
Civil Twilight 6:24 AM EDT 7:18 PM EDT
Nautical Twilight 5:51 AM EDT 7:52 PM EDT
Astronomical Twilight 5:17 AM EDT 8:25 PM EDT
Moon 7:06 PM EDT (3/16) 6:34 AM EDT (3/16)
Length of Visible Light 12h 53m
Length of Day
11h 57m
Full, 100% of the Moon is Illuminated
Mar 16
Full
Mar 16
Full
Mar 23
Last Quarter
Mar 30
New
Apr 7
First Quarter

Hourly Weather History & Observations

Time (EDT) Temp. Windchill Dew Point Humidity Pressure Visibility Wind Dir Wind Speed Gust Speed Precip Events Conditions
12:15 AM 37.4 °F 29.3 °F 17.6 °F 45% 29.79 in 10.0 mi WSW 12.7 mph 20.7 mph N/A   Clear
12:35 AM 35.6 °F 25.9 °F 17.6 °F 48% 29.78 in 10.0 mi West 16.1 mph 19.6 mph N/A   Clear
12:55 AM 35.6 °F 28.0 °F 17.6 °F 48% 29.79 in 10.0 mi West 10.4 mph 16.1 mph N/A   Clear
1:15 AM 35.6 °F 27.1 °F 17.6 °F 48% 29.80 in 10.0 mi West 12.7 mph 21.9 mph N/A   Clear
1:35 AM 33.8 °F 23.9 °F 19.4 °F 56% 29.81 in 10.0 mi West 15.0 mph 21.9 mph N/A   Clear
1:55 AM 33.8 °F 25.8 °F 17.6 °F 52% 29.83 in 10.0 mi West 10.4 mph 18.4 mph N/A   Clear
2:15 AM 33.8 °F 24.8 °F 17.6 °F 52% 29.83 in 10.0 mi West 12.7 mph 23.0 mph N/A   Clear
2:35 AM 32.0 °F 22.5 °F 17.6 °F 55% 29.83 in 10.0 mi West 12.7 mph - N/A   Clear
2:55 AM 33.8 °F 24.8 °F 17.6 °F 52% 29.84 in 10.0 mi West 12.7 mph - N/A   Mostly Cloudy
3:15 AM 32.0 °F 21.2 °F 21.2 °F 64% 29.85 in 5.0 mi West 16.1 mph 21.9 mph N/A   Mostly Cloudy
3:35 AM 30.2 °F 19.8 °F 24.8 °F 80% 29.85 in 8.0 mi West 13.8 mph 17.3 mph N/A   Overcast
3:55 AM 30.2 °F 20.2 °F 24.8 °F 80% 29.86 in 6.0 mi West 12.7 mph - N/A   Mostly Cloudy
4:15 AM 30.2 °F 20.8 °F 19.4 °F 64% 29.88 in 10.0 mi West 11.5 mph 18.4 mph N/A   Scattered Clouds
4:35 AM 28.4 °F 19.7 °F 21.2 °F 74% 29.89 in 10.0 mi West 9.2 mph 19.6 mph N/A   Clear
4:55 AM 28.4 °F 18.0 °F 17.6 °F 64% 29.90 in 10.0 mi West 12.7 mph 20.7 mph N/A   Clear
5:15 AM 28.4 °F 17.0 °F 15.8 °F 59% 29.91 in 10.0 mi WNW 15.0 mph 21.9 mph N/A   Partly Cloudy
5:35 AM 28.4 °F 18.0 °F 12.2 °F 51% 29.93 in 10.0 mi WNW 12.7 mph 19.6 mph N/A   Mostly Cloudy
5:55 AM 26.6 °F 13.8 °F 3.2 °F 37% 29.95 in 10.0 mi WNW 17.3 mph 27.6 mph N/A   Partly Cloudy
6:15 AM 24.8 °F 14.0 °F 3.2 °F 40% 29.96 in 10.0 mi WNW 11.5 mph 23.0 mph N/A   Clear
6:35 AM 24.8 °F 13.4 °F 10.4 °F 54% 29.96 in 10.0 mi WNW 12.7 mph 20.7 mph N/A   Clear
6:55 AM 24.8 °F 11.1 °F 8.6 °F 50% 29.97 in 10.0 mi West 18.4 mph 21.9 mph N/A   Clear
7:15 AM 23.0 °F 11.1 °F 1.4 °F 39% 29.98 in 10.0 mi West 12.7 mph 21.9 mph N/A   Clear
7:35 AM 23.0 °F 12.4 °F 5.0 °F 46% 30.00 in 10.0 mi WNW 10.4 mph 21.9 mph N/A   Clear
7:55 AM 23.0 °F 11.1 °F 8.6 °F 54% 30.00 in 10.0 mi WNW 12.7 mph - N/A   Clear
8:15 AM 24.8 °F 11.5 °F 1.4 °F 36% 30.01 in 10.0 mi West 17.3 mph 24.2 mph N/A   Clear
8:35 AM 23.0 °F 9.2 °F 3.2 °F 43% 30.02 in 10.0 mi WNW 17.3 mph 28.8 mph N/A   Partly Cloudy
8:55 AM 23.0 °F 10.1 °F 5.0 °F 46% 30.02 in 10.0 mi West 15.0 mph 25.3 mph N/A   Scattered Clouds
9:15 AM 23.0 °F 8.7 °F 1.4 °F 39% 30.03 in 10.0 mi West 18.4 mph 21.9 mph N/A   Mostly Cloudy
9:35 AM 21.2 °F 8.3 °F 1.4 °F 42% 30.04 in 10.0 mi WNW 13.8 mph 25.3 mph N/A   Mostly Cloudy
9:55 AM 23.0 °F 9.2 °F 1.4 °F 39% 30.05 in 10.0 mi WNW 17.3 mph 25.3 mph N/A   Scattered Clouds
10:15 AM 23.0 °F 8.7 °F -0.4 °F 36% 30.05 in 10.0 mi West 18.4 mph 32.2 mph N/A   Clear
10:35 AM 23.0 °F 8.7 °F 3.2 °F 43% 30.07 in 10.0 mi WNW 18.4 mph 32.2 mph N/A   Clear
10:55 AM 23.0 °F 9.2 °F 1.4 °F 39% 30.07 in 10.0 mi WNW 17.3 mph 27.6 mph N/A   Clear
11:15 AM 23.0 °F 8.7 °F -0.4 °F 36% 30.08 in 10.0 mi WNW 18.4 mph 29.9 mph N/A   Clear
11:35 AM 23.0 °F 8.7 °F -0.4 °F 36% 30.08 in 10.0 mi West 18.4 mph 27.6 mph N/A   Clear
11:55 AM 23.0 °F 7.6 °F -2.2 °F 33% 30.07 in 10.0 mi WNW 21.9 mph 29.9 mph N/A   Clear
12:15 PM 23.0 °F 8.7 °F -2.2 °F 33% 30.07 in 10.0 mi WNW 18.4 mph 31.1 mph N/A   Clear
12:35 PM 23.0 °F 7.2 °F -2.2 °F 33% 30.07 in 10.0 mi West 23.0 mph 31.1 mph N/A   Clear
12:55 PM 24.8 °F 11.5 °F -2.2 °F 31% 30.06 in 10.0 mi WNW 17.3 mph 28.8 mph N/A   Clear
1:15 PM 24.8 °F 11.5 °F -2.2 °F 31% 30.06 in 10.0 mi West 17.3 mph 28.8 mph N/A   Clear
1:35 PM 24.8 °F 11.5 °F -0.4 °F 34% 30.07 in 10.0 mi NW 17.3 mph 29.9 mph N/A   Clear
1:55 PM 24.8 °F 11.9 °F -0.4 °F 34% 30.07 in 10.0 mi WNW 16.1 mph 32.2 mph N/A   Clear
2:15 PM 24.8 °F 10.7 °F -2.2 °F 31% 30.06 in 10.0 mi West 19.6 mph 32.2 mph N/A   Clear
2:35 PM 24.8 °F 11.1 °F -2.2 °F 31% 30.07 in 10.0 mi WNW 18.4 mph 27.6 mph N/A   Clear
2:55 PM 24.8 °F 11.1 °F -2.2 °F 31% 30.07 in 10.0 mi WNW 18.4 mph 26.5 mph N/A   Clear
3:15 PM 24.8 °F 10.7 °F -0.4 °F 34% 30.07 in 10.0 mi West 19.6 mph 27.6 mph N/A   Clear
3:35 PM 24.8 °F 12.4 °F -0.4 °F 34% 30.07 in 10.0 mi NW 15.0 mph 32.2 mph N/A   Clear
3:55 PM 24.8 °F 11.5 °F -4.0 °F 28% 30.06 in 10.0 mi WNW 17.3 mph 27.6 mph N/A   Clear
4:15 PM 24.8 °F 11.5 °F -2.2 °F 31% 30.07 in 10.0 mi West 17.3 mph 23.0 mph N/A   Clear
4:35 PM 24.8 °F 11.1 °F -2.2 °F 31% 30.08 in 10.0 mi West 18.4 mph 25.3 mph N/A   Clear
4:55 PM 24.8 °F 11.1 °F -2.2 °F 31% 30.09 in 10.0 mi West 18.4 mph 24.2 mph N/A   Clear
5:15 PM 24.8 °F 13.4 °F -2.2 °F 31% 30.09 in 10.0 mi WNW 12.7 mph 24.2 mph N/A   Clear
5:35 PM 24.8 °F 12.9 °F -2.2 °F 31% 30.09 in 10.0 mi WNW 13.8 mph 23.0 mph N/A   Clear
5:55 PM 24.8 °F 12.4 °F -4.0 °F 28% 30.09 in 10.0 mi WNW 15.0 mph 21.9 mph N/A   Clear
6:15 PM 24.8 °F 12.9 °F -2.2 °F 31% 30.08 in 10.0 mi WNW 13.8 mph 20.7 mph N/A   Clear
6:35 PM 23.0 °F 11.1 °F -2.2 °F 33% 30.09 in 10.0 mi WNW 12.7 mph 19.6 mph N/A   Clear
6:55 PM 21.2 °F 7.8 °F -5.8 °F 30% 30.09 in 10.0 mi WNW 15.0 mph 20.7 mph N/A   Clear
7:15 PM 21.2 °F 8.9 °F -2.2 °F 36% 30.11 in 10.0 mi WNW 12.7 mph 20.7 mph N/A   Clear
7:35 PM 21.2 °F 10.1 °F -2.2 °F 36% 30.12 in 10.0 mi WNW 10.4 mph 19.6 mph N/A   Clear
7:55 PM 21.2 °F 9.5 °F -4.0 °F 33% 30.12 in 10.0 mi WNW 11.5 mph 18.4 mph N/A   Clear
8:15 PM 19.4 °F 6.0 °F -2.2 °F 39% 30.14 in 10.0 mi WNW 13.8 mph 20.7 mph N/A   Clear
8:35 PM 19.4 °F 10.4 °F -4.0 °F 36% 30.15 in 10.0 mi WNW 6.9 mph - N/A   Clear
8:55 PM 19.4 °F 6.6 °F -2.2 °F 39% 30.16 in 10.0 mi WNW 12.7 mph 18.4 mph N/A   Clear
9:15 PM 17.6 °F 6.4 °F -2.2 °F 42% 30.16 in 10.0 mi WNW 9.2 mph - N/A   Clear
9:35 PM 17.6 °F 9.3 °F -5.8 °F 35% 30.18 in 10.0 mi WNW 5.8 mph - N/A   Clear
9:55 PM 17.6 °F 5.7 °F -4.0 °F 38% 30.18 in 10.0 mi WNW 10.4 mph 18.4 mph N/A   Clear
10:15 PM 17.6 °F 4.3 °F -7.6 °F 32% 30.19 in 10.0 mi West 12.7 mph 17.3 mph N/A   Clear
10:35 PM 17.6 °F 5.0 °F -5.8 °F 35% 30.19 in 10.0 mi West 11.5 mph 17.3 mph N/A   Clear
10:55 PM 15.8 °F 7.2 °F -7.6 °F 35% 30.19 in 10.0 mi West 5.8 mph - N/A   Clear
11:15 PM 15.8 °F 2.7 °F -7.6 °F 35% 30.19 in 10.0 mi West 11.5 mph - N/A   Clear
11:35 PM 15.8 °F 2.1 °F -7.6 °F 35% 30.18 in 10.0 mi West 12.7 mph - N/A   Clear
11:55 PM 15.8 °F 7.2 °F -7.6 °F 35% 30.18 in 10.0 mi NW 5.8 mph - N/A   Clear